Weather History for KOPM - October, 2011

Change the Weather History Date:

Monday, October 10, 2011

  Actual Average Record
Temperature  
Mean Temperature 79 °F -  
Max Temperature 80 °F - - ()
Min Temperature 78 °F - - ()
Cooling Degree Days 14    
Growing Degree Days 29 (Base 50)    
Moisture  
Dew Point 71 °F    
Average Humidity 76    
Maximum Humidity 83    
Minimum Humidity 65    
Precipitation  
Precipitation 0.00 in - - ()
Sea Level Pressure  
Sea Level Pressure 29.91 in    
Wind  
Wind Speed 9 mph (North)    
Max Wind Speed 20 mph    
Max Gust Speed 18 mph    
Visibility 10 miles    
Events      
Averages and records for this station are not official NWS values.
T = Trace of Precipitation, MM = Missing Value Source: NWS Daily Summary

Daily Weather History Graph

Daily Weather History Graph

Search for Another Location

Airport or City:

Trip Planner

Search our weather history database for the weather conditions in past years. The results will help you decide how hot, cold, wet, or windy it might be!

Date:

Astronomy

Oct. 10, 2011 Rise Set
Actual Time 7:24 AM CDT 7:04 PM CDT
Civil Twilight 7:01 AM CDT 7:27 PM CDT
Nautical Twilight 6:34 AM CDT 7:54 PM CDT
Astronomical Twilight 6:07 AM CDT 8:21 PM CDT
Moon 6:09 PM CDT (10/10) 6:09 AM CDT (10/10)
Length of Visible Light 12h 26m
Length of Day
11h 40m
Waxing Gibbous, 98% of the Moon is Illuminated
Oct 10
Waxing Gibbous
Oct 11
Full
Oct 19
Last Quarter
Oct 26
New
Nov 2
First Quarter

Hourly Weather History & Observations

Time (CDT) Temp. Heat Index Dew Point Humidity Pressure Visibility Wind Dir Wind Speed Gust Speed Precip Events Conditions
12:15 AM 78.8 °F - 68.0 °F 69% 29.90 in 10.0 mi North 8.1 mph - N/A   Partly Cloudy
12:35 AM 78.8 °F - 66.2 °F 65% 29.90 in 10.0 mi North 5.8 mph - N/A   Mostly Cloudy
12:55 AM 78.8 °F - 69.8 °F 74% 29.90 in 10.0 mi NNE 6.9 mph 16.1 mph N/A   Overcast
1:15 AM 78.8 °F - 69.8 °F 74% 29.90 in 10.0 mi NNE 11.5 mph - N/A   Overcast
1:35 AM 78.8 °F - 69.8 °F 74% 29.90 in 10.0 mi NNE 8.1 mph 17.3 mph N/A   Overcast
1:55 AM 78.8 °F - 69.8 °F 74% 29.90 in 10.0 mi NE 15.0 mph - N/A   Overcast
2:15 AM 78.8 °F - 69.8 °F 74% 29.89 in 10.0 mi NNE 8.1 mph 16.1 mph N/A   Overcast
2:55 AM 78.8 °F - 69.8 °F 74% 29.89 in 10.0 mi NNE 10.4 mph - N/A   Overcast
3:15 AM 78.8 °F - 69.8 °F 74% 29.89 in 10.0 mi NE 13.8 mph - N/A   Overcast
3:35 AM 78.8 °F - 69.8 °F 74% 29.88 in 10.0 mi NE 12.7 mph - N/A   Overcast
4:15 AM 78.8 °F - 69.8 °F 74% 29.88 in 10.0 mi NNE 6.9 mph 12.7 mph N/A   Scattered Clouds
4:55 AM 78.8 °F - 69.8 °F 74% 29.88 in 10.0 mi NNE 6.9 mph - N/A   Partly Cloudy
5:35 AM 78.8 °F - 69.8 °F 74% 29.88 in 10.0 mi North 5.8 mph - N/A   Mostly Cloudy
6:35 AM 78.8 °F - 68.0 °F 69% 29.90 in 10.0 mi North 4.6 mph - N/A   Scattered Clouds
6:55 AM 78.8 °F - 68.0 °F 69% 29.90 in 10.0 mi North 4.6 mph - N/A   Mostly Cloudy
7:15 AM 78.8 °F - 68.0 °F 69% 29.90 in 10.0 mi NNW 6.9 mph - N/A   Partly Cloudy
7:35 AM 78.8 °F - 69.8 °F 74% 29.90 in 10.0 mi NNW 5.8 mph - N/A   Partly Cloudy
8:15 AM 78.8 °F - 73.4 °F 83% 29.91 in 10.0 mi NNW 8.1 mph - N/A   Mostly Cloudy
8:35 AM 78.8 °F - 73.4 °F 83% 29.92 in 9.0 mi NNW 8.1 mph - N/A   Scattered Clouds
9:15 AM 78.8 °F - 71.6 °F 78% 29.93 in 9.0 mi NNW 8.1 mph 13.8 mph N/A   Mostly Cloudy
9:35 AM 78.8 °F - 73.4 °F 83% 29.93 in 9.0 mi NNW 9.2 mph - N/A   Mostly Cloudy
9:55 AM 78.8 °F - 73.4 °F 83% 29.94 in 9.0 mi North 8.1 mph - N/A   Scattered Clouds
10:15 AM 78.8 °F - 73.4 °F 83% 29.94 in 9.0 mi North 8.1 mph 13.8 mph N/A   Partly Cloudy
10:35 AM 78.8 °F - 73.4 °F 83% 29.95 in 9.0 mi North 8.1 mph - N/A   Scattered Clouds
10:55 AM 78.8 °F - 71.6 °F 78% 29.96 in 10.0 mi North 8.1 mph 13.8 mph N/A   Mostly Cloudy
11:15 AM 78.8 °F - 71.6 °F 78% 29.96 in 9.0 mi North 8.1 mph - N/A   Mostly Cloudy
11:35 AM 78.8 °F - 71.6 °F 78% 29.96 in 10.0 mi North 6.9 mph - N/A   Overcast
11:55 AM 78.8 °F - 71.6 °F 78% 29.96 in 9.0 mi North 8.1 mph 13.8 mph N/A   Overcast
12:15 PM 78.8 °F - 71.6 °F 78% 29.95 in 9.0 mi NNW 8.1 mph - N/A   Mostly Cloudy
12:35 PM 78.8 °F - 71.6 °F 78% 29.95 in 10.0 mi NNW 8.1 mph - N/A   Mostly Cloudy
1:15 PM 78.8 °F - 71.6 °F 78% 29.94 in 10.0 mi NNW 11.5 mph - N/A   Overcast
1:35 PM 78.8 °F - 71.6 °F 78% 29.93 in 9.0 mi NNW 11.5 mph - N/A   Overcast
1:55 PM 78.8 °F - 71.6 °F 78% 29.92 in 10.0 mi NNW 12.7 mph - N/A   Overcast
2:15 PM 78.8 °F - 71.6 °F 78% 29.92 in 9.0 mi NNW 11.5 mph - N/A   Overcast
2:35 PM 78.8 °F - 71.6 °F 78% 29.92 in 9.0 mi NNW 11.5 mph - N/A   Overcast
2:55 PM 78.8 °F - 71.6 °F 78% 29.91 in 10.0 mi NNW 8.1 mph - N/A   Overcast
3:15 PM 78.8 °F - 71.6 °F 78% 29.90 in 10.0 mi North 8.1 mph - N/A   Mostly Cloudy
3:35 PM 78.8 °F - 71.6 °F 78% 29.90 in 9.0 mi NNW 8.1 mph - N/A   Partly Cloudy
4:15 PM 78.8 °F - 71.6 °F 78% 29.89 in 10.0 mi North 6.9 mph - N/A   Mostly Cloudy
4:35 PM 78.8 °F - 69.8 °F 74% 29.88 in 10.0 mi NNW 6.9 mph - N/A   Mostly Cloudy
4:55 PM 78.8 °F - 69.8 °F 74% 29.88 in 10.0 mi NNW 8.1 mph - N/A   Partly Cloudy
5:10 PM 78.8 °F - 69.8 °F 74% 29.88 in 10.0 mi NNW 8.1 mph - N/A   Partly Cloudy
5:35 PM 78.8 °F - 69.8 °F 74% 29.88 in 10.0 mi North 5.8 mph - N/A   Partly Cloudy
5:55 PM 78.8 °F - 69.8 °F 74% 29.88 in 9.0 mi North 6.9 mph - N/A   Partly Cloudy
6:15 PM 78.8 °F - 71.6 °F 78% 29.87 in 9.0 mi North 6.9 mph 13.8 mph N/A   Scattered Clouds
6:35 PM 78.8 °F - 71.6 °F 78% 29.87 in 10.0 mi North 8.1 mph - N/A   Scattered Clouds
6:55 PM 78.8 °F - 71.6 °F 78% 29.88 in 10.0 mi NNE 6.9 mph 13.8 mph N/A   Mostly Cloudy
7:15 PM 78.8 °F - 71.6 °F 78% 29.88 in 10.0 mi NNE 5.8 mph 12.7 mph N/A   Scattered Clouds
7:35 PM 78.8 °F - 71.6 °F 78% 29.88 in 10.0 mi NNE 6.9 mph - N/A   Scattered Clouds
7:55 PM 78.8 °F - 71.6 °F 78% 29.88 in 10.0 mi NNE 9.2 mph 18.4 mph N/A   Scattered Clouds
8:35 PM 80.6 °F 84.6 °F 71.6 °F 74% 29.89 in 10.0 mi NNE 13.8 mph - N/A   Partly Cloudy
8:55 PM 80.6 °F 84.6 °F 71.6 °F 74% 29.89 in 10.0 mi NE 19.6 mph - N/A   Partly Cloudy
9:15 PM 80.6 °F 84.6 °F 71.6 °F 74% 29.89 in 10.0 mi NE 18.4 mph - N/A   Partly Cloudy
9:35 PM 80.6 °F 83.9 °F 69.8 °F 70% 29.90 in 10.0 mi NE 17.3 mph - N/A   Partly Cloudy
9:55 PM 80.6 °F 83.9 °F 69.8 °F 70% 29.90 in 10.0 mi NE 17.3 mph - N/A   Scattered Clouds
10:15 PM 80.6 °F 83.9 °F 69.8 °F 70% 29.90 in 10.0 mi NE 18.4 mph - N/A   Scattered Clouds
10:35 PM 80.6 °F 83.9 °F 69.8 °F 70% 29.90 in 10.0 mi NE 15.0 mph - N/A   Partly Cloudy
10:55 PM 80.6 °F 83.9 °F 69.8 °F 70% 29.90 in 10.0 mi NE 15.0 mph - N/A   Scattered Clouds
11:35 PM 80.6 °F 83.9 °F 69.8 °F 70% 29.91 in 10.0 mi NE 13.8 mph - N/A   Mostly Cloudy
11:55 PM 80.6 °F 83.9 °F 69.8 °F 70% 29.91 in 10.0 mi NE 11.5 mph - N/A   Scattered Clouds